STARLINK-1356, 45564

Orbit data source: Space-Track

STARLINK-1356, 45564 is a payload satellite owned by SpaceX/Seattle (US) in LEO that was launched on Wed, 22 Apr 2020 UTC via an FALCON 9 launch vehicle from the Air Force Eastern Test Range (AFETR). Payload-class satellites include a variety of spacecraft equipped with specific instruments for various scientific and technological missions. These include communications satellites like Starlink; space stations such as the ISS; scientific satellites like the Hubble; Earth observation satellites from companies like Planet Labs, Umbra, and HawkEye 360; GPS; miniature CubeSats for education and research; and military/defense satellites.

Loading next visibility...
Identifier
45564, 2020-025AK
Orbit
LEO
Country
Flag of USUS
Related business
Manufacturer
SpaceX/Seattle
Mission
Partially operational Commercial Communications
Bus & Motor
STARLINK, Unknown motor
Mass
260 kg wet, ~248 kg dry
Launch date (UTC)
2020-04-22 (6 years ago)
Launch vehicle
FALCON 9
Launch site
Air Force Eastern Test Range (AFETR)
Object type
Payload
Rocket body
Debris
Shape & HBR
Box + 1 Pan, 10.1 m
Radar Cross Section
13.562 m², Large (>1 m²)

Expand to show TLE details & history
Last TLE update: 11 hours ago

TLE from 11 hours ago
0 STARLINK-1356
1 45564U 20025AK  26123.50493269  .00083650  00000-0  12992-2 0  9992
2 45564  53.0458 171.1715 0003786 337.8898  22.1947 15.53259664334049
Epoch: 2026-05-03T12:07Z
TLE epoch observation values (Epoch: 2026-05-03T12:07:06.184Z)
Latitude
-0.00005°
Longitude
127.98817°
Altitude
405.734 km
Speed
7.67 km/s
True Right ascension
11h 24m 41s
True Declination
0° 00' 00"
Sunlit
Object was in full shadow at epoch
Visualization orbit readout
Latitude
Unknown
Longitude
Unknown
Altitude
Unknown
Speed
Unknown
Apparent Right ascension
Unknown
Apparent Declination
Unknown
Sunlit
N/A
Visualization observer readout
Local Sidereal Time
06:26:10
Azimuth
Unknown
Elevation
Unknown
Doppler factor
Unknown
Orbital elements
Apogee altitude
410.063 km
Perigee altitude
404.925 km
Semi-major axis
6,785.631 km
Eccentricity
0.00038
Inclination
53.0458°
RAAN
171.1715°
Arg. of periapsis
337.8898°
True anomaly
22.2111°
Mean anomaly
22.1947°
Eccentric anomaly
22.2029°
Mean motion
3.88291 °/min
Orbital period
92.71 mins
BSTAR
0.0012992
Loading maneuver chart data...
Computing Atmospheric mass density...

Documentation

Showing up to 5 results
|